Weather in Yubileyny

Russia / Zabaykalsky Krai     50°16′06″N   118°21′34″E
temp.,
°C
wind,
m/s
gust,
m/s
humid.,
%
clouds,
%
prec.,
mm/h
press.,
hPa
HPBL,
m
11 august, thu
thu1100:00+14nnw3569100 0.0 1003149
03:00+11nw2282100 0.0 100421
06:00+10nw22875 0.0 100513
09:00+16nnw35613 0.0 1006833
12:00+21n464482 0.0 10051950
15:00+22n3541100 0.0 10042155
18:00+20nne1151100 0.0 1005339
21:00+17sw0055100 0.0 100611
12 august, fri
fri1200:00+17w1158100 0.0 100611
03:00+12wnw11765 0.0 100611
06:00+11w11815 0.0 100610
09:00+18w225687 0.0 1006290
12:00+23wsw454335 0.0 10041546
15:00+25w5834100 0.0 10013213
18:00+19nnw365587 0.1 1002216
21:00+14nnw22795 0.3 100416
13 august, sat
sat1300:00+11ne11900 0.0 100611
03:00+11nnw22920 0.0 100611
06:00+10nnw11925 0.0 100710
09:00+16nnw11720 0.0 1007322
12:00+21nnw12512 0.0 10061305
15:00+24wsw243684 0.0 10042699
18:00+23nw124094 0.0 1004643
21:00+18ne1153100 0.0 100511
14 august, sun
sun1400:00+15ene1166100 0.0 100511
03:00+14ne1170100 0.0 100511
06:00+14ene2171100 0.0 100411
09:00+18ene2361100 0.0 1003274
12:00+20ene5654100 0.0 1002606
15:00+21ne6749100 0.0 10001278
18:00+16ene4880100 1.4 1000277
21:00+14ne2596100 6.1 1001199
15 august, mon
mon1500:00+13ne5895100 2.8 1002333
03:00+13n3798100 6.1 1002272
06:00+13n3796100 1.2 1003201
09:00+15nw1289100 1.3 100489
12:00+20nnw356540 0.8 1004750
15:00+23nnw1348100 1.4 10021621
18:00+24nw134354 0.0 10031345
21:00+17wnw22692 0.0 100411